Regional Weather Roundup
Issued by NWS Kansas City/Pleasant Hill, MO

Home | Current Version | Previous Version | Text Only | Print | Product List | Glossary On
Versions: 1 2 3 4 5 6 7 8 9 10 11 12 13 14 15 16 17 18 19 20 21 22 23 24 25 26 27 28 29 30 31 32 33 34 35 36 37 38 39 40 41 42 43 44 45 46 47 48 49 50
421
ASUS43 KEAX 240110
RWREAX

WEATHER ROUNDUP FOR EASTERN KANSAS AND NORTHWEST MISSOURI
NATIONAL WEATHER SERVICE KANSAS CITY/PLEASANT HILL MO
700 PM CST MON JAN 23 2017

KSZ040-057-103>105-MOZ028-029-037-043-240200-
...KANSAS CITY METROPOLITAN AREA...

CITY           SKY/WX    TMP DP  RH WIND       PRES   REMARKS
K.C. INTL      CLEAR     36  29  75 SE8       29.83R WCI  30
K.C. DOWNTOWN  CLEAR     38  32  79 E6        29.84R WCI  33
LEES SUMMIT    CLEAR     37  33  85 SE6       29.84S WCI  32
OLATHE - IXD   CLEAR     36  33  89 E6        29.82S WCI  31
OLATHE - OJC   CLEAR     36  33  89 E6        29.82S WCI  31
LAWRENCE       CLEAR     36  32  85 E8        29.82S WCI  30

$$

MOZ001>008-011>017-020>025-030>033-038>040-044>046-053-054-240200-
...NORTHERN AND CENTRAL MISSOURI...

CITY           SKY/WX    TMP DP  RH WIND       PRES   REMARKS
ST. JOSEPH     CLEAR     34  31  88 E7        29.84S WCI  28
MOSBY          CLEAR     36  32  87 E3        29.85S
WARRENSBURG    PTCLDY    36  32  87 CALM      29.85S
WHITEMAN AFB   CLOUDY    36  36 100 SE3       29.85R
CLINTON        CLEAR     32  32 100 CALM      29.86S
SEDALIA        CLOUDY    35  31  85 S3        29.88R
WARSAW         NOT AVBL
CHILLICOTHE      N/A     35  29  78 E3        29.87F
KIRKSVILLE     CLOUDY    33  29  85 NW3       29.87R

$$

MOZ041-047>049-056>058-063>065-088>090-097-240200-
...EASTERN AND SOUTHERN MISSOURI...

CITY           SKY/WX    TMP DP  RH WIND       PRES   REMARKS
ST. LOUIS INTL CLOUDY    42  34  73 NW3       29.86R
SPIRIT OF STL  CLOUDY    42  34  73 NW3       29.86R
COLUMBIA       CLOUDY    36  31  82 N3        29.85F
JEFFERSON CITY CLOUDY    37  31  78 NW5       29.87S WCI  33
ROLLA          PTCLDY    37  33  85 NW5       29.83R WCI  33
OSAGE BEACH    CLEAR     37  33  85 CALM      29.85F
SPRINGFIELD    CLEAR     41  31  67 E10       29.82F WCI  35
BRANSON        CLEAR     39  32  75 CALM      29.85R
JOPLIN         CLEAR     42  32  67 VRB3      29.82S
WEST PLAINS    CLEAR     41  32  70 CALM      29.85R

$$

IAZ060-094-KSZ022-034>040-054-083-096-NEZ052-066-093-240200-
...KANSAS...SOUTHEAST NEBRASKA AND IOWA...

CITY           SKY/WX    TMP DP  RH WIND       PRES   REMARKS
TOPEKA         CLEAR     35  31  85 E7        29.81R WCI  29
MANHATTAN      CLEAR     39  34  82 NE7       29.77R WCI  34
EMPORIA        CLEAR     42  34  73 SE9       29.77R
CHANUTE        CLEAR     42  34  73 SE6       29.81R
WICHITA        PTCLDY    48  32  53 SE14      29.70F
OMAHA          CLOUDY    33  27  78 SE9       29.83R WCI  25
LINCOLN        PTCLDY    34  30  85 SE10      29.81R WCI  26
FALLS CITY     CLEAR     32  29  88 E8        29.82R WCI  25
LAMONI         CLOUDY    32  28  85 E3        29.83F
DES MOINES     CLOUDY    34  28  79 NE3       29.85S

$$





USA.gov is the U.S. government's official web portal to all federal, state and local government web resources and services.